Location: *
(48.8667°N, 2.3331°E)
Time: 01:15:40
(UTC+00:00)

Meteor 2-10 - Pass Details

Date: 09 April 2020
Orbit: 737 x 869 km, 81.2° (Epoch: 30 May)

Event Time Altitude Azimuth Distance (km) Brightness Sun altitude
Rises 19:01:01 0° 187° (S) 3,332 7.2 -5.1°
Reaches altitude 10° 19:03:21 10° 187° (S) 2,423 6.5 -5.5°
Maximum altitude 19:08:52 84° 100° (E) 858 4.2 -6.3°
Drops below altitude 10° 19:14:36 10° 13° (NNE) 2,510 6.8 -7.2°
Sets 19:17:04 0° 13° (NNE) 3,460 7.5 -7.6°
